Wind_Speed
3 3 3 3 3 3 3 3 3 2 2 1 1 1 0 0 1 1 1 1 1 2 2 2 2 3 3 4 4 4 5 5 5 5 5 5 5 6 6 7 8 8 8
3 2 2 2 2 2 3 3 3 3 2 2 2 1 1 1 1 1 2 2 3 3 3 3 3 4 4 4 5 5 6 6 7 7 7 7 7 7 7 7 8 8 8
4 4 4 4 3 3 4 3 3 4 4 3 3 3 3 3 2 2 3 4 4 4 4 4 5 5 5 5 6 7 7 8 9 9 9 9 9 9 9 9 10 10 10
5 6 5 5 4 5 5 5 5 5 4 5 5 5 5 5 5 5 6 6 6 6 6 6 6 7 8 8 9 9 10 10 11 11 11 12 12 12 12 12 12 12 12
5 6 7 7 6 6 6 6 6 6 6 6 7 7 7 7 7 7 7 7 7 7 7 8 9 9 10 10 11 11 12 12 13 13 13 13 13 14 14 14 14 14 14
7 8 8 8 8 8 8 8 7 7 7 7 7 7 8 8 8 8 8 9 8 9 9 10 10 11 12 13 13 13 13 14 15 14 14 14 15 15 15 15 15 16 16
9 9 10 9 9 9 9 9 9 9 8 8 8 9 9 9 10 10 11 11 11 11 11 11 13 13 14 14 14 15 15 16 16 16 15 15 16 17 17 17 17 17 18
11 11 11 11 10 10 11 11 10 10 10 10 10 10 10 11 12 12 13 13 14 14 14 14 14 15 15 16 16 16 17 17 18 18 17 17 17 18 18 19 19 20 19
13 13 13 13 13 13 13 12 12 12 13 13 13 13 13 13 14 14 15 15 16 16 17 17 17 17 17 17 18 19 19 19 19 19 19 19 19 19 20 20 20 21 22
14 14 14 15 15 15 15 14 13 15 16 16 15 15 15 14 15 16 17 18 18 18 19 19 20 20 20 20 20 21 21 21 21 21 21 21 21 21 21 22 22 22 23
15 15 15 16 16 15 15 16 17 17 18 18 18 17 16 16 16 18 19 19 20 21 21 21 22 23 23 23 23 23 23 22 22 22 23 23 23 23 23 23 23 23 23
16 17 18 18 18 18 17 17 18 19 19 18 19 18 18 18 18 19 20 20 21 22 23 24 24 24 25 25 26 25 25 24 24 24 24 25 25 25 25 25 26 26 26
18 18 19 19 20 19 19 20 21 21 21 20 20 20 21 21 20 21 21 22 23 24 25 26 26 27 27 28 28 28 28 28 27 27 27 27 27 27 27 27 27 28 28
19 20 21 21 21 21 22 22 23 22 22 23 24 23 24 24 24 24 24 25 25 26 27 28 28 29 30 30 30 30 30 30 30 29 29 29 29 29 29 29 29 29 28
20 20 21 21 22 22 23 23 24 24 24 25 25 25 25 26 26 26 27 27 28 28 29 29 30 31 32 32 32 32 32 32 32 31 31 31 31 30 30 30 30 30 30
22 22 22 23 24 24 24 25 25 25 26 26 27 28 28 28 29 29 29 30 31 31 32 32 32 32 33 33 33 33 33 34 33 33 33 32 32 31 31 31 31 31 31
24 24 24 25 25 26 26 27 27 27 28 28 29 30 30 31 31 32 32 32 33 34 35 35 35 34 35 35 35 35 35 35 35 35 35 35 34 34 33 32 32 32 31
27 27 27 28 28 28 28 29 29 29 30 31 32 32 33 33 34 34 34 35 35 36 36 37 37 37 36 36 36 36 36 35 36 37 37 37 36 35 34 33 33 33 33
29 29 30 30 30 30 30 31 31 31 32 33 34 34 35 35 35 35 36 36 36 37 37 37 37 37 37 37 37 37 38 39 38 38 38 38 37 37 35 34 34 34 34
30 31 32 32 32 32 33 33 33 33 34 34 35 36 36 36 35 36 37 37 37 37 38 38 38 38 37 37 38 38 39 40 39 39 38 38 37 37 36 36 36 36 36
32 32 33 33 34 34 34 34 34 34 35 36 37 37 36 36 36 37 37 37 37 37 37 38 38 38 38 38 38 39 40 39 39 38 38 38 39 39 39 38 38 38 38
32 33 33 33 34 34 35 35 35 36 36 37 37 37 37 37 38 37 38 38 39 39 38 38 38 38 39 39 40 40 40 40 39 39 39 39 39 39 40 40 40 40 40
32 33 34 34 34 35 36 36 36 36 36 37 37 37 37 38 39 39 38 39 40 39 39 39 39 38 39 40 40 40 40 40 40 40 40 40 39 40 40 40 40 41 42
33 34 35 35 35 35 36 36 36 36 37 37 37 38 39 39 39 39 39 39 39 39 39 39 38 38 39 39 39 39 38 39 40 40 40 40 40 40 40 40 40 40 40
33 34 34 35 35 35 36 36 37 37 38 38 38 38 38 37 38 38 38 39 39 39 39 39 39 39 39 39 38 38 38 38 39 39 40 40 41 40 40 39 39 39 38
34 36 37 37 37 37 37 37 37 38 39 39 39 38 38 39 39 39 38 39 39 39 39 39 39 38 38 38 38 38 38 38 38 39 39 40 40 40 39 39 38 37 36
Wind_Direction
15 24 37 47 44 32 28 22 19 16 14 11 28 41 285 281 221 208 218 237 278 297 296 298 283 305 308 314 315 310 304 300 295 293 291 291 293 296 297 296 294 291 289
327 326 331 348 5 8 357 347 337 329 328 331 314 297 276 278 282 244 249 272 286 289 302 299 307 307 305 306 308 312 311 308 301 295 293 293 294 295 297 299 297 295 294
288 289 293 301 306 317 322 325 319 315 308 310 310 297 282 279 273 280 276 280 286 290 298 309 308 303 302 302 303 304 304 306 306 301 294 291 290 292 293 292 292 291 291
282 282 283 285 290 295 300 303 302 305 305 306 302 295 291 285 279 281 281 282 284 284 289 295 302 303 306 303 303 305 301 303 303 300 297 291 289 288 290 291 292 290 288
288 288 285 279 282 288 289 292 293 296 298 295 292 290 288 287 288 289 285 286 285 283 287 293 296 300 302 302 300 302 301 301 301 297 293 290 289 288 287 287 289 289 287
285 284 284 282 279 281 285 287 287 290 293 295 293 287 283 286 287 285 284 285 290 289 287 292 293 295 298 299 298 300 299 298 298 294 290 289 289 291 290 287 287 287 287
281 280 280 282 283 279 280 281 284 288 290 291 293 289 284 285 288 286 285 283 287 290 290 291 290 292 296 296 296 296 296 297 295 291 288 287 290 290 290 291 289 287 286
278 277 275 276 277 276 276 278 279 283 286 288 291 290 285 283 285 287 287 286 286 287 287 288 292 293 293 294 294 296 297 295 294 291 288 286 288 289 289 290 289 289 289
275 274 273 273 274 274 276 276 278 280 282 285 286 289 288 285 282 283 284 284 283 282 284 287 289 290 291 291 292 293 293 291 290 289 288 287 285 288 290 289 289 289 289
272 273 274 275 275 275 276 276 277 281 284 282 285 285 287 286 282 282 284 283 283 284 284 286 287 287 287 288 290 291 290 287 287 286 285 288 287 287 288 288 286 287 288
270 272 275 278 280 280 279 278 278 283 289 288 285 285 285 284 286 286 286 285 284 283 284 285 285 286 285 285 286 288 289 287 285 285 285 286 285 286 287 287 285 285 285
268 270 273 278 278 279 280 279 281 283 285 285 284 283 284 284 285 286 286 287 286 284 284 284 284 284 284 283 284 285 285 285 285 285 286 286 285 285 286 286 286 285 283
268 271 274 275 275 276 275 277 279 281 284 283 283 284 284 284 285 286 287 289 287 285 284 284 283 283 282 282 282 282 282 283 283 284 284 285 284 284 284 285 284 284 284
268 270 272 272 273 273 274 277 279 281 283 283 283 283 286 287 287 288 290 290 289 286 285 284 283 282 281 281 281 280 281 281 282 282 283 283 283 283 283 282 283 283 282
269 269 269 271 273 275 275 277 279 281 282 283 283 283 287 288 287 290 292 291 290 288 287 286 285 283 282 281 280 279 279 280 280 280 282 281 281 282 282 282 282 281 282
269 269 268 269 271 273 274 276 278 280 281 282 283 284 286 286 287 288 289 290 290 289 287 285 285 285 283 281 280 279 278 278 279 279 280 280 280 281 281 281 280 279 280
270 268 267 268 270 273 274 275 277 279 281 282 284 285 285 286 286 287 288 288 289 288 288 287 288 288 287 284 282 281 279 278 277 277 278 278 279 279 279 279 279 278 277
269 269 267 267 268 270 273 275 276 277 279 281 282 283 285 285 286 287 287 287 288 289 288 288 288 288 286 284 284 281 279 279 278 277 278 278 278 278 277 277 277 278 277
269 268 267 267 267 268 271 273 275 277 278 279 281 282 284 284 285 285 286 287 287 288 288 289 289 288 286 283 282 281 279 278 278 277 277 278 278 276 275 276 278 278 278
269 268 267 268 268 269 271 273 274 276 278 280 281 282 283 283 284 285 286 287 288 288 289 288 288 287 286 284 282 280 280 279 278 277 276 276 277 275 275 276 277 277 278
267 268 268 269 269 270 271 273 274 276 278 279 280 280 281 282 283 284 286 287 289 289 289 289 287 287 286 284 282 282 283 280 279 278 278 278 279 278 277 276 276 275 275
269 269 269 269 270 271 273 274 276 277 278 279 280 280 281 283 284 285 285 286 288 288 288 288 287 286 285 283 282 281 280 279 278 278 279 280 280 278 277 276 275 274 273
270 270 271 271 271 272 274 275 276 277 278 279 279 280 281 283 284 284 285 286 287 286 287 287 287 286 284 283 282 281 281 280 280 279 279 279 279 278 277 276 276 274 272
271 272 273 273 274 274 274 276 277 277 278 280 281 281 281 283 284 284 284 285 286 286 287 287 287 287 286 285 284 282 281 281 280 279 279 279 279 278 278 276 276 274 272
271 274 274 275 276 275 276 277 278 280 280 281 282 283 284 285 286 287 288 288 288 289 289 288 288 288 287 285 283 283 282 281 281 280 279 279 278 277 277 275 274 273 272
272 273 274 275 277 277 278 279 280 281 282 283 283 284 286 287 287 289 290 290 290 290 289 288 288 288 286 285 283 283 282 282 282 282 281 281 279 277 275 274 273 272 271
Height
5922 5922 5921 5921 5920 5919 5918 5918 5917 5916 5915 5915 5914 5914 5913 5913 5913 5913 5912 5912 5912 5911 5911 5911 5910 5910 5910 5910 5909 5909 5908 5907 5907 5906 5906 5905 5904 5904 5903 5903 5902 5901 5901
5923 5922 5922 5921 5920 5920 5919 5918 5917 5916 5916 5915 5914 5914 5913 5913 5913 5912 5912 5912 5911 5911 5910 5910 5910 5909 5909 5909 5908 5908 5907 5906 5905 5905 5904 5904 5904 5902 5902 5901 5900 5899 5899
5922 5922 5922 5921 5920 5920 5919 5918 5917 5916 5915 5915 5914 5914 5913 5913 5912 5912 5912 5911 5911 5910 5910 5909 5909 5908 5908 5907 5907 5906 5906 5905 5904 5903 5903 5902 5901 5901 5900 5899 5898 5898 5897
5922 5921 5921 5920 5920 5919 5918 5918 5917 5916 5915 5914 5914 5913 5912 5912 5912 5911 5911 5910 5910 5910 5909 5909 5908 5907 5907 5906 5905 5905 5904 5903 5902 5901 5900 5899 5899 5898 5898 5897 5896 5895 5894
5921 5921 5920 5919 5919 5918 5917 5917 5916 5915 5914 5913 5912 5912 5911 5911 5910 5910 5910 5909 5909 5908 5908 5907 5907 5906 5905 5904 5903 5902 5901 5900 5899 5898 5897 5896 5895 5894 5894 5893 5893 5892 5891
5920 5920 5919 5918 5917 5917 5916 5915 5915 5914 5913 5912 5911 5910 5910 5909 5909 5908 5908 5907 5907 5907 5906 5906 5905 5904 5903 5902 5901 5900 5899 5898 5896 5895 5894 5893 5892 5891 5890 5889 5889 5888 5887
5919 5918 5917 5916 5916 5915 5914 5914 5913 5912 5911 5911 5910 5909 5908 5907 5907 5906 5906 5905 5905 5904 5904 5903 5902 5901 5900 5899 5898 5897 5895 5894 5893 5892 5890 5889 5888 5887 5887 5886 5885 5884 5883
5917 5916 5915 5914 5914 5913 5912 5912 5911 5910 5910 5909 5908 5907 5906 5905 5904 5904 5903 5902 5902 5901 5901 5900 5899 5898 5897 5895 5894 5893 5892 5890 5889 5888 5887 5885 5884 5884 5883 5882 5881 5880 5879
5914 5913 5912 5912 5911 5910 5910 5909 5908 5907 5907 5906 5905 5904 5903 5902 5901 5900 5899 5898 5898 5897 5897 5896 5895 5894 5893 5891 5890 5889 5887 5886 5885 5884 5883 5881 5880 5879 5878 5877 5876 5875 5874
5910 5910 5909 5909 5908 5907 5906 5906 5905 5905 5904 5903 5902 5901 5899 5898 5897 5896 5895 5894 5894 5893 5892 5891 5890 5889 5888 5886 5885 5884 5883 5881 5880 5879 5878 5876 5875 5874 5873 5871 5870 5869 5868
5907 5907 5906 5905 5904 5903 5903 5902 5902 5901 5900 5899 5898 5897 5896 5895 5893 5892 5891 5890 5889 5888 5887 5886 5885 5884 5882 5881 5880 5878 5877 5876 5874 5873 5872 5871 5869 5868 5867 5866 5865 5863 5862
5903 5903 5902 5902 5901 5900 5899 5898 5897 5896 5896 5895 5894 5893 5891 5890 5889 5888 5886 5884 5883 5882 5881 5880 5879 5878 5876 5875 5874 5872 5871 5870 5868 5867 5866 5865 5864 5862 5861 5859 5858 5857 5855
5899 5898 5898 5897 5896 5896 5895 5893 5892 5891 5890 5890 5889 5888 5886 5885 5884 5883 5881 5879 5878 5876 5875 5874 5872 5871 5869 5868 5867 5865 5864 5863 5862 5860 5859 5858 5857 5856 5854 5853 5851 5850 5848
5893 5893 5893 5892 5891 5891 5890 5889 5887 5886 5885 5884 5883 5882 5880 5879 5877 5876 5875 5874 5872 5870 5868 5867 5865 5863 5862 5860 5859 5858 5857 5856 5855 5853 5852 5851 5849 5848 5847 5845 5844 5842 5841
5888 5887 5887 5886 5886 5885 5884 5883 5882 5881 5880 5878 5877 5875 5874 5873 5871 5870 5868 5867 5865 5863 5861 5859 5857 5855 5854 5852 5851 5850 5849 5848 5847 5845 5844 5843 5841 5840 5839 5837 5836 5834 5833
5881 5881 5881 5880 5880 5879 5878 5877 5876 5875 5873 5872 5870 5869 5867 5866 5864 5863 5861 5859 5857 5855 5853 5851 5849 5847 5845 5844 5843 5841 5840 5839 5838 5837 5835 5834 5833 5831 5830 5828 5827 5826 5825
5873 5874 5873 5873 5873 5872 5871 5870 5869 5868 5866 5865 5863 5861 5860 5858 5856 5854 5852 5850 5848 5846 5844 5843 5841 5839 5837 5835 5834 5832 5831 5829 5828 5827 5826 5825 5824 5822 5821 5820 5818 5817 5815
5866 5866 5865 5865 5865 5864 5864 5863 5861 5860 5859 5857 5855 5853 5852 5850 5848 5846 5844 5842 5839 5837 5835 5833 5831 5829 5827 5826 5824 5822 5821 5820 5819 5817 5816 5815 5813 5812 5811 5810 5809 5808 5807
5857 5857 5857 5856 5856 5856 5855 5854 5853 5852 5850 5848 5847 5845 5843 5841 5839 5837 5834 5832 5830 5827 5825 5823 5821 5819 5817 5816 5814 5812 5810 5809 5808 5807 5805 5804 5803 5802 5801 5800 5799 5798 5797
5848 5848 5847 5847 5847 5847 5846 5845 5844 5842 5841 5839 5837 5835 5833 5830 5828 5826 5824 5822 5819 5817 5814 5812 5810 5808 5806 5805 5803 5801 5799 5799 5797 5796 5795 5793 5793 5792 5790 5790 5789 5788 5787
5839 5839 5838 5838 5838 5837 5837 5836 5834 5833 5831 5829 5827 5824 5823 5820 5818 5816 5814 5811 5809 5806 5804 5801 5799 5797 5795 5793 5792 5789 5788 5787 5785 5784 5783 5782 5781 5780 5779 5779 5778 5777 5776
5830 5829 5829 5829 5828 5828 5827 5825 5824 5822 5820 5818 5816 5814 5812 5810 5807 5805 5803 5800 5798 5795 5793 5791 5788 5786 5784 5782 5780 5778 5776 5775 5774 5773 5771 5770 5769 5768 5767 5767 5766 5765 5764
5820 5819 5819 5819 5818 5817 5816 5815 5814 5812 5810 5808 5805 5803 5801 5799 5796 5794 5792 5789 5786 5784 5782 5779 5777 5774 5772 5770 5768 5766 5764 5762 5761 5761 5760 5758 5757 5756 5755 5754 5753 5752 5752
5810 5809 5809 5808 5808 5807 5805 5804 5803 5801 5799 5797 5795 5793 5790 5788 5785 5783 5781 5778 5775 5773 5770 5768 5765 5763 5760 5758 5756 5753 5752 5750 5748 5748 5747 5745 5744 5743 5742 5741 5740 5739 5739
5801 5800 5799 5798 5797 5796 5794 5793 5791 5790 5788 5786 5784 5781 5778 5776 5774 5772 5769 5767 5764 5761 5759 5756 5754 5751 5749 5746 5744 5741 5740 5738 5736 5735 5734 5733 5731 5730 5729 5729 5728 5727 5726
5791 5790 5788 5787 5786 5784 5783 5781 5780 5778 5776 5774 5772 5769 5767 5765 5762 5760 5757 5754 5752 5749 5747 5744 5742 5739 5737 5734 5732 5730 5728 5726 5724 5722 5721 5719 5718 5717 5716 5715 5715 5714 5714